[[{"header":{"parameterUnit":"m.s-1","parameterCategory":1,"la1":30.2991,"la2":30.254,"lo1":-89.0895,"lo2":-89.0444,"dy":0.0017,"dx":0.0017,"nx":28,"ny":28,"refTime":"2025-04-18T09:00:00:Z","depth":0,"parameterNumber":2,"parameterNumberName":"U-component_of_WINDS"},"data":[0,0,0,0,0,0,0,0,0,0,0,0,0,0,0,0,0,0,0,0,0,0,0,0,0,0,0,0,0,0,0,0,0,0,0,0,0,0,0,0,0,0,0,0,0,0,0,0,0,0,0,0,0,0,0,0,0,0,-3.4481,-3.4484,0,-3.4695,-3.4698,-3.47,-3.4745,-3.4744,-3.4742,-3.474,-3.4965,-3.4972,-3.4979,0,0,0,0,0,0,0,0,0,0,0,0,0,-3.4117,-3.4124,-3.4481,-3.4484,-3.4486,-3.4695,-3.4698,-3.4701,-3.4745,-3.4743,-3.4742,-3.474,-3.4962,-3.4971,-3.498,0,0,0,0,0,0,0,0,0,0,0,0,0,-3.4298,-3.4126,-3.4481,-3.4534,-3.454,-3.4694,-3.4698,-3.4702,-3.4746,-3.4743,-3.4741,-3.4739,-3.4959,-3.497,-3.4981,-3.5099,0,0,-3.5016,-3.5021,0,0,0,0,0,0,0,0,-3.4287,-3.4311,-3.4523,-3.453,-3.4538,-3.4691,-3.4652,-3.4835,-3.4746,-3.4668,-3.474,-3.4738,-3.4876,-3.4894,-3.494,-3.511,-3.5119,-3.5017,-3.5024,-3.5028,-3.5031,0,0,0,0,0,0,0,-3.4275,-3.4302,-3.4566,-3.4526,-3.4535,-3.4549,-3.4572,-3.4687,-3.4783,-3.4675,-3.4678,-3.4703,-3.488,-3.4929,-3.4945,-3.5123,-3.5016,-3.5026,-3.5033,-3.5038,-3.5403,-3.5405,0,0,0,0,0,0,-3.4252,-3.4291,-3.4559,-3.4572,-3.4404,-3.4557,-3.4583,-3.4644,-3.4782,-3.4801,-3.4705,-3.4704,-3.4911,-3.4932,-3.4953,-3.5101,-3.5028,-3.5039,-3.5045,-3.54,-3.5403,-3.5407,0,0,0,0,0,0,-3.4244,-3.4276,-3.4551,-3.4433,-3.4469,-3.4566,-3.4635,-3.465,-3.4699,-3.4805,-3.4823,-3.4737,-3.491,-3.4937,-3.5063,-3.5109,-3.5044,-3.5054,-3.5396,-3.5401,-3.5405,-3.5396,0,0,0,0,0,0,-3.4233,-3.4272,-3.4316,-3.4434,-3.4475,-3.4654,-3.4638,-3.4656,-3.4717,-3.4719,-3.4839,-3.4857,-3.491,-3.5046,-3.5074,-3.5123,-3.5063,-3.5392,-3.5398,-3.5404,-3.5393,-3.54,-3.5406,0,0,0,0,0,-3.422,-3.4306,-3.4318,-3.435,-3.4532,-3.4657,-3.4681,-3.4738,-3.4721,-3.4767,-3.4836,-3.4853,-3.51,-3.5058,-3.509,-3.5144,-3.539,-3.5397,-3.5403,-3.539,-3.5398,-3.5405,0,0,0,0,0,0,-3.4193,-3.4322,-3.4337,-3.4463,-3.4548,-3.4664,-3.4723,-3.4745,-3.4838,-3.4836,-3.4905,-3.4932,-3.5054,-3.5112,-3.5063,-3.5266,-3.5244,-3.5258,-3.5223,-3.5232,-3.5239,-3.5221,-3.5072,0,0,0,0,0,-3.4201,-3.429,-3.4399,-3.45,-3.4542,-3.4625,-3.4682,-3.4719,-3.4811,-3.4848,-3.4925,-3.5015,-3.5114,-3.5176,-3.5273,-3.5402,-3.543,-3.5455,-3.5462,-3.5467,-3.5477,-3.5551,-3.5564,-3.5428,-3.5428,-3.5428,0,0,-3.4219,-3.4301,-3.4353,-3.4496,-3.4567,-3.4659,-3.4655,-3.4753,-3.4822,-3.4863,-3.4985,-3.5046,-3.5152,-3.5279,-3.534,-3.5332,-3.5521,-3.5475,-3.5478,-3.5486,-3.556,-3.5572,-3.5584,-3.5433,-3.5432,-3.5431,0,0,-3.43,-3.437,-3.4462,-3.4533,-3.4639,-3.4695,-3.4717,-3.483,-3.4871,-3.4995,-3.5028,-3.5114,-3.5281,-3.5355,-3.5414,-3.5526,-3.5546,-3.5556,-3.5589,-3.5661,-3.5672,-3.5681,-3.5721,-3.5735,-3.5566,-3.5566,-3.5566,0,-3.4309,-3.4447,-3.4507,-3.4603,-3.4666,-3.4706,-3.4801,-3.4868,-3.5001,-3.5044,-3.5033,-3.5245,-3.5319,-3.5465,-3.5493,-3.554,-3.5569,-3.5541,-3.5665,-3.5675,-3.5686,-3.5724,-3.5739,-3.5567,-3.5567,-3.5567,-3.5566,0,-3.4454,-3.455,-3.4612,-3.4738,-3.4808,-3.4903,-3.4979,-3.5044,-3.5076,-3.5133,-3.526,-3.5351,-3.5466,-3.5505,-3.5537,-3.5657,-3.5649,-3.5651,-3.563,-3.5698,-3.5735,-3.5751,-3.5567,-3.5567,-3.5567,-3.5567,0,0,-3.452,-3.4679,-3.4701,-3.4759,-3.4881,-3.4957,-3.5056,-3.5168,-3.5222,-3.5314,-3.5399,-3.5541,-3.5544,-3.5611,-3.5654,-3.5717,-3.58,-3.5712,-3.5715,-3.5724,-3.5938,-3.5935,-3.5951,-3.5815,-3.5818,-3.5821,-3.5929,0,-3.4614,-3.4788,-3.4846,-3.4992,-3.5082,-3.5123,-3.521,-3.5295,-3.5352,-3.5439,-3.5504,-3.5603,-3.5599,-3.5641,-3.5705,-3.5776,-3.5844,-3.5769,-3.5896,-3.59,-3.5866,-3.5971,-3.5967,-3.6065,-3.5944,-3.5947,-3.5949,0,-3.4747,-3.4839,-3.4993,-3.5105,-3.5145,-3.5221,-3.5329,-3.5411,-3.551,-3.5548,-3.5624,-3.5662,-3.5769,-3.5744,-3.5893,-3.5841,-3.5897,-3.594,-3.5946,-3.5958,-3.5927,-3.5985,-3.6097,-3.6111,-3.5973,-3.5971,-3.5969,0,-3.4778,-3.4942,-3.5055,-3.5104,-3.5238,-3.529,-3.5349,-3.5446,-3.551,-3.5606,-3.5648,-3.5756,-3.5815,-3.5899,-3.5965,-3.594,-3.6109,-3.6089,-3.6145,-3.6143,-3.6176,-3.6173,-3.6298,-3.6215,-3.6214,-3.6214,-3.6214,0,-3.4877,-3.4969,-3.5071,-3.5141,-3.5247,-3.5314,-3.5418,-3.5479,-3.5566,-3.565,-3.5694,-3.5772,-3.5857,-3.5947,-3.6001,-3.6117,-3.6144,-3.6178,-3.6191,-3.6173,-3.6169,-3.6209,-3.6204,-3.6218,-3.6217,-3.6217,-3.6216,0,-3.4929,-3.5001,-3.5127,-3.5244,-3.5276,-3.5348,-3.545,-3.552,-3.558,-3.5686,-3.5715,-3.581,-3.5919,-3.5995,-3.6135,-3.6172,-3.6297,-3.631,-3.6262,-3.6268,-3.6319,-3.6313,-3.6474,-3.6498,-3.6399,-3.64,-3.6401,0,-3.4986,-3.5058,-3.5182,-3.5241,-3.5299,-3.5393,-3.5459,-3.553,-3.5597,-3.5716,-3.5773,-3.5885,-3.5977,-3.615,-3.6233,-3.6341,-3.6357,-3.6406,-3.6373,-3.6353,-3.6357,-3.6351,-3.6359,-3.641,-3.641,-3.6411,-3.6411,0,-3.508,-3.5112,-3.5204,-3.5309,-3.5385,-3.5472,-3.5559,-3.5606,-3.5692,-3.5766,-3.5877,-3.5949,-3.6092,-3.6203,-3.632,-3.6383,-3.6413,-3.6421,-3.644,-3.6422,-3.6391,-3.6408,-3.6275,-3.6417,-3.6416,-3.6416,-3.6416,-3.6415,-3.5136,-3.5202,-3.53,-3.5401,-3.5474,-3.5555,-3.5627,-3.5697,-3.579,-3.591,-3.5948,-3.6064,-3.6164,-3.6324,-3.6389,-3.6482,-3.6479,-3.6505,-3.6512,-3.6517,-3.6516,-3.6377,-3.6504,-3.6504,-3.6504,-3.6504,-3.6504,0,-3.5231,-3.5296,-3.5389,-3.5509,-3.559,-3.561,-3.5708,-3.5775,-3.5875,-3.5966,-3.6056,-3.6185,-3.6293,-3.6386,-3.6499,-3.6556,-3.6572,-3.6583,-3.6579,-3.6593,-3.6513,-3.6485,-3.6568,-3.6568,-3.6568,-3.6568,-3.6568,-3.6567,-3.529,-3.5403,-3.5447,-3.5598,-3.5665,-3.5776,-3.5831,-3.5907,-3.5979,-3.612,-3.621,-3.6269,-3.6362,-3.6482,-3.6583,-3.6608,-3.6647,-3.6655,-3.6682,-3.6606,-3.6598,-3.6591,-3.6565,-3.6663,-3.6663,-3.6754,-3.6755,-3.6756]},{"header":{"parameterUnit":"m.s-1","parameterCategory":1,"la1":30.2991,"la2":30.254,"lo1":-89.0895,"lo2":-89.0444,"dy":0.0017,"dx":0.0017,"nx":28,"ny":28,"refTime":"2025-04-18T09:00:00:Z","depth":0,"parameterNumber":3,"parameterNumberName":"V-component_of_WINDS"},"data":[0,0,0,0,0,0,0,0,0,0,0,0,0,0,0,0,0,0,0,0,0,0,0,0,0,0,0,0,0,0,0,0,0,0,0,0,0,0,0,0,0,0,0,0,0,0,0,0,0,0,0,0,0,0,0,0,0,0,3.253,3.253,0,3.2587,3.2588,3.2589,3.2586,3.2585,3.2584,3.2584,3.2645,3.2647,3.2649,0,0,0,0,0,0,0,0,0,0,0,0,0,3.2422,3.2424,3.253,3.2531,3.2531,3.2587,3.2588,3.2589,3.2586,3.2585,3.2584,3.2583,3.2644,3.2647,3.2649,0,0,0,0,0,0,0,0,0,0,0,0,0,3.2473,3.2424,3.253,3.2537,3.2538,3.2587,3.2588,3.2589,3.2586,3.2585,3.2584,3.2583,3.2643,3.2646,3.265,3.2697,0,0,3.2661,3.2662,0,0,0,0,0,0,0,0,3.247,3.2477,3.2535,3.2536,3.2538,3.2578,3.2572,3.2625,3.2587,3.2568,3.2583,3.2582,3.2624,3.2629,3.2642,3.27,3.2702,3.2661,3.2663,3.2665,3.2666,0,0,0,0,0,0,0,3.2466,3.2474,3.2553,3.2536,3.2537,3.2538,3.2544,3.2582,3.2602,3.2569,3.2569,3.2576,3.2624,3.2639,3.2644,3.2703,3.2661,3.2664,3.2666,3.2668,3.2805,3.2807,0,0,0,0,0,0,3.2461,3.2471,3.2551,3.2554,3.25,3.2541,3.2548,3.2566,3.2602,3.2606,3.2577,3.2576,3.2633,3.264,3.2646,3.2705,3.2665,3.2668,3.267,3.2804,3.2806,3.2807,0,0,0,0,0,0,3.2459,3.2468,3.2549,3.2513,3.2523,3.2544,3.2565,3.2568,3.2583,3.2607,3.2611,3.2588,3.2633,3.2641,3.2685,3.2707,3.267,3.2673,3.2802,3.2804,3.2806,3.2821,0,0,0,0,0,0,3.2456,3.2467,3.2484,3.2513,3.2525,3.2585,3.2567,3.257,3.2589,3.2588,3.2619,3.2623,3.2632,3.2679,3.2688,3.2711,3.2676,3.28,3.2803,3.2806,3.2819,3.2824,3.2828,0,0,0,0,0,3.2452,3.2486,3.2485,3.2494,3.2546,3.2586,3.2593,3.2603,3.259,3.2608,3.2625,3.2622,3.2703,3.2684,3.2694,3.2718,3.2799,3.2802,3.2805,3.2817,3.2823,3.2828,0,0,0,0,0,0,3.2459,3.249,3.2489,3.2533,3.2557,3.2586,3.2608,3.2608,3.2636,3.2634,3.2646,3.2653,3.2697,3.2712,3.269,3.2767,3.275,3.2755,3.2755,3.2761,3.2765,3.276,3.2679,0,0,0,0,0,3.2465,3.2494,3.252,3.2557,3.2569,3.2587,3.2604,3.261,3.2635,3.2645,3.2665,3.269,3.2722,3.2742,3.2773,3.2822,3.283,3.2844,3.2848,3.2852,3.2856,3.2885,3.2892,3.2818,3.2818,3.2818,0,0,3.2479,3.25,3.2517,3.2559,3.2578,3.2609,3.2595,3.2628,3.2651,3.2651,3.2693,3.2709,3.2739,3.2786,3.2808,3.28,3.2879,3.2856,3.2859,3.2861,3.289,3.2897,3.2903,3.2821,3.282,3.282,0,0,3.252,3.2539,3.2572,3.2592,3.2621,3.2633,3.2641,3.2671,3.2681,3.2724,3.2725,3.2754,3.2807,3.2829,3.2847,3.29,3.2899,3.291,3.2933,3.2962,3.2967,3.2973,3.2993,3.2999,3.2915,3.2915,3.2915,0,3.2534,3.2579,3.2589,3.2622,3.2642,3.2643,3.2678,3.2697,3.2735,3.2749,3.274,3.2809,3.2829,3.2882,3.2895,3.291,3.2921,3.2906,3.2966,3.2971,3.2976,3.2995,3.3003,3.2916,3.2916,3.2916,3.2915,0,3.2596,3.2627,3.2651,3.2687,3.271,3.2744,3.276,3.2782,3.2787,3.28,3.2846,3.287,3.2907,3.292,3.2924,3.2975,3.2969,3.2963,3.2946,3.2984,3.3002,3.301,3.2917,3.2917,3.2917,3.2916,0,0,3.264,3.2684,3.2692,3.271,3.2743,3.2769,3.2805,3.284,3.2858,3.2886,3.2917,3.2964,3.2959,3.2979,3.2987,3.3012,3.3054,3.3003,3.3004,3.3012,3.3113,3.3118,3.3126,3.3055,3.3056,3.3057,3.3111,0,3.2685,3.2746,3.2757,3.2812,3.2842,3.2846,3.2877,3.2902,3.2917,3.2947,3.2964,3.2997,3.2987,3.3,3.3025,3.3044,3.3075,3.304,3.3085,3.3086,3.3076,3.3135,3.3139,3.3189,3.3118,3.3119,3.312,0,3.2745,3.2773,3.283,3.2862,3.2875,3.2903,3.2937,3.2965,3.2995,3.3004,3.3029,3.3035,3.3074,3.3056,3.3111,3.3088,3.3107,3.312,3.3122,3.3126,3.3105,3.3141,3.3204,3.3212,3.3131,3.3131,3.313,0,3.2772,3.2825,3.2866,3.2881,3.2919,3.2939,3.2956,3.2985,3.3006,3.3037,3.3052,3.3087,3.3107,3.3135,3.3151,3.3136,3.3206,3.3189,3.3216,3.3215,3.3229,3.3228,3.3296,3.3242,3.3242,3.3242,3.3242,0,3.282,3.2855,3.288,3.2905,3.2945,3.2959,3.2999,3.3016,3.3042,3.3073,3.3079,3.3108,3.3127,3.3159,3.3173,3.3217,3.3226,3.3236,3.3239,3.3235,3.3234,3.3247,3.3244,3.3244,3.3243,3.3243,3.3243,0,3.2857,3.2874,3.292,3.2953,3.2962,3.2991,3.302,3.3046,3.3062,3.31,3.311,3.3136,3.3174,3.3193,3.3241,3.325,3.3301,3.3302,3.3291,3.3292,3.3318,3.3315,3.3397,3.3409,3.3347,3.3347,3.3348,0,3.2886,3.2913,3.295,3.297,3.2987,3.302,3.3042,3.3059,3.3082,3.312,3.3142,3.318,3.3212,3.3274,3.3298,3.3335,3.3337,3.3364,3.3343,3.3339,3.3338,3.3336,3.334,3.3367,3.3367,3.3368,3.3368,0,3.2937,3.2945,3.2975,3.301,3.3036,3.3065,3.3093,3.311,3.3131,3.3157,3.3196,3.3221,3.3271,3.331,3.335,3.337,3.3373,3.3375,3.3383,3.3379,3.3372,3.3377,3.3301,3.3373,3.3372,3.3372,3.3372,3.3371,3.2971,3.2996,3.3025,3.306,3.3084,3.311,3.3137,3.3157,3.3189,3.323,3.3239,3.3281,3.3314,3.3367,3.3389,3.3423,3.3418,3.3429,3.3432,3.3435,3.3437,3.3367,3.3431,3.3431,3.3431,3.343,3.343,0,3.3022,3.3042,3.3074,3.3113,3.3142,3.3142,3.3175,3.3198,3.3235,3.3265,3.3296,3.3343,3.3382,3.341,3.345,3.3472,3.3475,3.3482,3.3481,3.3486,3.3439,3.3428,3.3479,3.3479,3.3479,3.3479,3.3479,3.3479,3.3052,3.3094,3.3106,3.3161,3.3182,3.3222,3.3241,3.3266,3.329,3.3342,3.3374,3.3392,3.3422,3.3464,3.3501,3.3509,3.3523,3.353,3.3538,3.3494,3.3488,3.3483,3.3473,3.3533,3.3533,3.3582,3.3582,3.3583]}]]